Location: Suhl
(50.5693°N, 10.6787°E)
Time: 01:36:37
(UTC+02:00)

ISS - Visible Passes

Search period start: 21 May 2018 00:00
Search period end: 31 May 2018 00:00
Orbit: 402 x 407 km, 51.6° (Epoch: 21 May)

Date Brightness Start Highest point End Pass type
(mag) Time Alt. Az. Time Alt. Az. Time Alt. Az.
21 May -3.9 00:45:23 10° W 00:48:40 82° N 00:51:57 10° ENE visible
21 May -3.8 02:21:59 10° WNW 02:25:16 79° N 02:28:32 10° E visible
21 May -3.4 03:58:33 10° W 04:01:38 38° SSW 04:04:41 10° SE visible
21 May -2.7 22:17:39 10° SSW 22:20:18 23° SE 22:22:58 10° E visible
21 May -4.0 23:53:12 10° WSW 23:56:29 81° SSE 23:59:46 10° ENE visible
22 May -3.6 01:29:46 10° W 01:33:03 72° N 01:36:19 10° E visible
22 May -3.8 03:06:19 10° WNW 03:09:32 56° SSW 03:12:44 10° SE visible
22 May -3.9 23:01:05 10° WSW 23:04:19 59° SSE 23:07:33 10° ENE visible
23 May -3.6 00:37:33 10° W 00:40:49 71° N 00:44:05 10° E visible
23 May -4.0 02:14:06 10° WNW 02:17:22 78° SSW 02:20:39 10° ESE visible
23 May -2.6 03:50:56 10° W 03:53:31 22° SW 03:56:06 10° SSE visible
23 May -3.4 22:09:06 10° SW 22:12:12 40° SSE 22:15:18 10° E visible
23 May -3.7 23:45:18 10° W 23:48:34 78° N 23:51:51 10° ENE visible
24 May -3.9 01:21:53 10° WNW 01:25:10 84° NNE 01:27:53 14° E visible
24 May -2.5 02:58:30 10° W 03:00:17 24° WSW 03:00:17 24° WSW visible
24 May -3.9 22:53:04 10° WSW 22:56:20 88° S 22:59:38 10° ENE visible
25 May -3.7 00:29:38 10° W 00:32:56 73° N 00:35:40 14° E visible
25 May -2.8 02:06:11 10° W 02:08:15 32° W 02:08:15 32° W visible
25 May -3.9 22:00:53 10° WSW 22:04:08 67° SSE 22:07:24 10° ENE visible
25 May -3.6 23:37:23 10° W 23:40:39 70° N 23:43:55 10° E visible
26 May -4.0 01:13:56 10° WNW 01:17:09 70° SSW 01:17:09 70° SSW visible
26 May -3.6 22:45:06 10° W 22:48:22 74° N 22:51:39 10° E visible
27 May -3.9 00:21:40 10° WNW 00:24:58 90° N 00:26:19 33° ESE visible
27 May -1.5 01:58:20 10° W 01:58:55 14° W 01:58:55 14° W visible
27 May -3.8 21:52:49 10° WSW 21:56:06 86° N 21:59:23 10° ENE visible
27 May -3.7 23:29:24 10° W 23:32:41 76° N 23:35:33 13° E visible
28 May -2.8 01:05:57 10° W 01:08:10 33° WSW 01:08:10 33° WSW visible
28 May -3.6 22:37:06 10° W 22:40:23 71° N 22:43:39 10° E visible
29 May -3.9 00:13:38 10° WNW 00:16:54 62° SSW 00:17:28 50° SSE visible
29 May -3.9 23:21:21 10° WNW 23:24:38 84° SSW 23:26:49 19° ESE visible
30 May -1.9 00:58:05 10° W 00:59:27 18° WSW 00:59:27 18° WSW visible
30 May -3.7 22:29:02 10° WNW 22:32:20 80° NNE 22:35:36 10° E visible
